sat.trackr.live / text

‹ back to catalog

STARLINK-4452

NORAD 53658 · 2022-105L

PAYLOAD ACTIVE UNKNOWN

§ Identity

Operator
Country
US
Launch date
2022-08-31
Launch site
AFWTR
Launch vehicle
Mass (kg)
RCS (m²)

Purposes: comms

External: N2YO · Heavens-Above · Gunter

§ Orbital elements

Epoch: 2026-05-25T02:58:55.858368Z

Period
95.64 min
Inclination
97.4497°
Eccentricity
0.0001966
Mean motion
15.05612973 rev/d
Perigee alt
548.3 km
Apogee alt
551.0 km
Semi-major
6,927.8 km
B*
4.7343e-4
RAAN
26.2284°
Arg perigee
81.6047°
Mean anomaly
278.5403°
Rev number
20,480

§ Raw data

STARLINK-44521 53658U 22105L   26145.12425762  .00006772  00000+0  47343-3 0  99992 53658  97.4497  26.2284 0001966  81.6047 278.5403 15.05612973204803

JSON: /api/v1/satellites/53658 · /tle

For live sub-satellite position, see the globe view (requires WebGL).

§ Visibility from observer

Set your observer location to see the next 7 days of passes ≥ 10°. The values pass through the URL so the page stays shareable.

No JS? Fill the form by hand. The geolocation button needs JavaScript.